Flag for Poland Weather past 2 weeks in Białystok, Poland

Now
45 °F

Fog.


Feels Like: 45 °F
Forecast: 48 / 70 °F
Wind: 1 mph from Northeast

Location: Bialystok

Current Time: Sep 18, 2014 at 1:46:28 AM

Latest Report: Sep 18, 2014 at 1:00 AM


Visibility: 3 mi

Pressure: 30.27 "Hg

Humidity: 97%

Dew point: 44 °F

Location of BiałystokLocation

Historic Weather in Białystok — Graph

°F

Białystok temperature yesterday

Maximum temperature yesterday: 66 °F (at 2:00 PM)
Minimum temperature yesterday: 40 °F (at 6:00 AM)
Average temperature yesterday: 53 °F

Past Weeks' High & Low Weather Summary

 TemperatureHumidityPressure
High77 °F (Sep 13, 2:00 PM)100% (Sep 11, 6:00 AM)30.39 "Hg (Sep 11, 6:00 AM)
Low40 °F (Sep 17, 6:00 AM)35% (Sep 14, 4:00 PM)29.93 "Hg (Sep 9, 1:00 PM)
Average58 °F78%30.16 "Hg
* Reported Midnight between Sep 2 and Sep 3 — Midnight between Sep 17 and Sep 18, Białystok, Weather by CustomWeather, © 2014

Note: Actual official high and low records may vary slightly from our data, if they occured in-between our weather recording intervals... More about our weather records

Advertising

Białystok weather history for previous 24 hours

 ConditionsComfort  
Time TempWeatherWind HumidityBarometerVisibility
12:00 AM
Sep 18
46 °FFog.1 mph97%30.27 "Hg4 mi
11:00 PM
Sep 17
46 °FClear.1 mph96%30.27 "Hg6 mi
10:00 PM47 °FClear.No wind95%30.27 "Hg6 mi
9:00 PM48 °FPassing clouds.1 mph93%30.27 "Hg6 mi
8:00 PM50 °FPassing clouds.1 mph90%30.26 "Hg6 mi
7:00 PM54 °FPassing clouds.1 mph79%30.24 "Hg11 mi
6:00 PM62 °FPartly sunny.2 mph55%30.23 "Hg16 mi
5:00 PM66 °FPartly sunny.3 mph48%30.24 "Hg19 mi
4:00 PM66 °FPartly sunny.3 mph46%30.24 "Hg22 mi
3:00 PM66 °FPartly sunny.5 mph46%30.25 "Hg19 mi
2:00 PM66 °FPartly sunny.5 mph47%30.27 "Hg17 mi
1:00 PM66 °FPartly sunny.3 mph48%30.29 "Hg19 mi
12:00 PM65 °FPartly sunny.5 mph48%30.29 "Hg28 mi
11:00 AM63 °FScattered clouds.2 mph53%30.30 "Hg19 mi
10:00 AM60 °FScattered clouds.2 mph64%30.31 "Hg16 mi
9:00 AM54 °FScattered clouds.2 mph74%30.31 "Hg15 mi
8:00 AM48 °FScattered clouds.1 mph89%30.31 "Hg9 mi
7:00 AM42 °FPartly sunny.No wind99%30.32 "Hg6 mi
6:00 AM40 °FFog.No wind98%30.32 "Hg6 mi
5:00 AM41 °FFog.No wind98%30.32 "Hg6 mi
4:00 AM42 °FFog.1 mph98%30.32 "Hg6 mi
3:00 AM42 °FFog.No wind98%30.32 "Hg6 mi
2:00 AM43 °FFog.No wind97%30.32 "Hg6 mi
1:00 AM44 °FClear.1 mph97%30.31 "Hg7 mi
Weather by CustomWeather, © 2014

See weather overviewHow to use our weather pages